Cloud_Cover
59 6 6 0 5 4 4 5 5 5 4 4 3 1 0 0 0 0 0 0 0 0 0 0 0 0 0 0 0 0 0 0 0 0 0 0 0 0 0 0 0 0 0 0 0 0 0
83 44 5 5 1 5 5 5 5 5 5 5 0 0 0 0 0 0 0 0 0 0 0 0 0 0 0 0 0 0 0 0 0 0 0 0 0 0 0 0 0 0 0 0 0 0 0
75 79 9 0 0 4 14 14 5 2 5 2 0 0 0 0 0 0 0 0 0 0 0 0 0 0 0 0 0 0 0 0 0 0 0 0 0 0 0 0 0 0 0 0 0 0 0
22 62 2 0 2 5 5 5 2 0 0 0 0 0 0 0 0 0 0 0 0 0 0 0 0 0 0 0 0 0 0 0 0 0 0 0 0 0 0 0 0 0 0 0 0 0 0
7 5 3 5 5 5 5 3 0 0 0 0 0 0 0 0 0 0 0 0 0 0 0 0 0 0 0 0 0 0 0 0 0 0 0 0 0 0 0 0 0 0 0 0 0 0 0
3 2 5 5 1 5 2 0 0 0 0 0 0 0 0 0 0 0 0 0 0 0 0 0 0 0 0 0 0 0 0 0 0 0 0 0 0 0 0 0 0 2 4 5 5 2 0
0 4 1 2 0 0 0 0 0 0 0 0 0 0 0 0 0 0 0 0 0 0 0 0 0 0 0 0 0 0 0 0 0 0 0 0 0 0 0 0 0 4 5 5 5 5 0
10 1 1 1 0 1 0 6 22 12 0 0 0 0 0 0 0 0 0 0 0 0 0 0 0 0 0 0 0 0 0 0 0 0 0 0 0 0 0 0 5 5 5 5 5 5 4
0 1 1 2 0 7 3 17 68 41 0 0 0 0 0 0 0 0 0 0 0 0 0 0 0 0 0 0 0 0 0 0 0 0 0 0 0 0 1 4 5 5 5 5 25 5 5
5 3 2 3 7 3 2 30 97 100 61 0 0 0 0 0 0 0 0 0 0 0 0 0 0 0 0 0 0 0 0 0 0 0 0 0 0 0 0 0 0 0 5 34 36 5 5
0 0 5 3 0 0 0 35 100 100 100 0 0 0 0 0 0 0 0 0 0 0 0 0 0 0 0 0 0 0 0 0 0 0 0 0 0 0 0 0 0 3 5 5 5 5 5
0 0 0 0 0 0 0 18 87 100 97 2 0 0 0 0 0 0 0 0 0 0 0 0 0 0 0 0 0 0 0 0 0 0 0 0 0 0 0 0 0 0 3 14 14 6 10
0 0 0 0 0 0 0 16 84 100 87 2 0 0 0 0 0 0 0 0 0 0 0 0 0 0 0 0 0 0 0 0 1 0 0 0 0 0 0 0 0 4 5 5 5 5 18
0 0 0 0 0 0 0 1 74 100 100 0 0 0 0 0 0 0 0 0 0 0 0 0 0 0 0 0 0 0 0 0 0 0 2 4 0 0 0 0 0 2 5 5 5 4 5
0 0 0 0 0 0 0 0 88 100 100 0 0 0 0 0 0 0 0 0 0 0 0 0 0 0 0 0 0 0 0 0 0 3 0 0 0 0 0 0 0 0 4 5 5 51 18
0 0 0 0 0 0 0 38 100 100 100 0 0 0 0 0 0 0 0 0 0 0 0 0 0 0 0 0 0 0 0 1 0 1 4 3 5 0 0 4 2 5 4 5 32 3 5
0 0 1 11 9 0 8 92 100 100 80 0 0 0 0 0 0 0 0 0 0 0 0 0 0 0 0 0 0 0 0 0 0 1 5 5 5 1 4 5 5 5 5 5 5 6 45
5 1 83 100 96 0 37 100 100 100 27 0 0 0 0 0 0 0 0 0 0 0 0 0 0 0 0 0 0 0 0 0 4 5 5 5 9 5 5 5 5 5 5 5 89 83 99
5 100 100 100 100 1 29 81 42 100 46 0 0 0 0 0 0 0 0 0 0 0 0 0 0 0 0 0 0 0 0 1 5 7 19 74 46 81 16 15 8 70 31 82 85 100 81
100 100 100 100 100 0 0 0 0 1 9 0 0 0 0 0 0 0 0 0 0 0 0 0 0 0 0 2 4 2 5 5 8 84 76 95 75 46 88 56 88 100 88 73 88 100 56
100 100 100 100 100 0 0 0 0 0 0 0 2 0 0 0 0 0 0 0 0 0 0 0 0 0 0 4 5 5 5 26 76 68 100 100 92 68 96 100 100 100 56 25 37 9 92
100 100 100 100 98 44 4 0 0 0 0 0 0 0 97 2 4 5 5 5 0 0 0 0 0 3 5 14 5 79 97 100 100 100 100 100 79 91 100 78 100 100 100 100 22 9 8
100 100 100 100 100 94 40 9 4 3 2 0 0 2 35 29 11 5 5 0 5 5 4 5 5 5 5 5 25 90 87 100 100 100 100 100 100 100 100 100 100 100 100 100 100 69 5
100 100 100 100 100 100 100 100 100 100 20 94 76 61 96 55 17 13 12 23 5 5 5 9 37 66 17 10 79 98 100 100 100 100 100 100 100 100 100 100 98 100 100 11 5 9 5
100 100 100 100 100 100 100 95 86 100 100 84 100 77 100 100 41 42 6 7 99 54 100 70 91 94 99 93 76 100 100 92 100 100 100 100 100 100 100 100 37 98 28 8 11 98 88
100 100 100 100 100 100 23 5 5 13 77 90 100 100 100 100 98 19 60 82 100 97 100 100 79 100 100 100 100 100 100 79 68 42 38 75 99 100 100 100 62 91 48 5 5 5 5
100 100 100 99 100 100 51 52 47 27 34 72 99 82 100 100 98 99 100 100 100 100 100 100 100 100 100 100 100 95 23 5 54 62 5 6 69 83 95 99 8 0 4 8 78 40 30
100 100 100 100 100 99 47 63 100 90 91 94 99 17 58 100 74 34 25 94 98 100 100 100 100 87 52 98 82 92 98 16 66 99 88 83 98 96 100 100 72 5 43 94 99 99 100
100 100 100 100 100 100 100 100 95 63 92 100 70 18 27 100 100 98 50 21 20 98 100 87 90 100 34 72 91 92 90 100 100 100 100 100 99 85 22 3 4 38 80 94 95 99 85